Retour au catalogue

SECOR 3

ActifScienceLEO
NORAD 1208·PAYLOAD·🇺🇸 United States

Lancé Mar 9, 1965 depuis Vandenberg Space Force Base

Loading…

Prochains Passages (prochaines 24 heures)

TLE

FraisSource: Space-Track

Époque: Sep 13, 2026, 17:28 UTC

1 01208U 65016E   26256.72820251  .00000023  00000-0  54871-4 0  9991
2 01208  70.0824 355.5162 0021793 323.2623 198.2780 13.96091196131526

Suivez SECOR 3 en temps réel avec AllMySat

Download on the App Store